This demonstration page uses our WeatherBlox Daily Observations layout. Learn more.

Left ArrowRight Arrow

36.17497, -115.13722

Hourly Observations for October 20, 2019

Temp ( °F °C ) Dew Point ( °F °C ) Humidity (%) Winds ( mph kmh ) Pressure ( in mb ) Visibility ( mi km ) Precip ( " mm )
12:53 am 00:53 Clear 69 20.6 11 -11.7 10 10 NW 24 39 29.82 1010 10 16.0934 N/A
1:53 am 01:53 Clear 67 19.4 15 -9.4 13 13 NW 20 31 29.84 1010 10 16.0934 N/A
2:53 am 02:53 Clear 67 19.4 20 -6.7 17 17 NW 17 28 29.86 1011 10 16.0934 N/A
3:53 am 03:53 Clear 65 18.3 21 -6.1 19 19 NW 16 26 29.87 1012 10 16.0934 N/A
4:53 am 04:53 Clear 65 18.3 24 -4.4 21 21 NW 15 24 29.9 1013 10 16.0934 N/A
5:53 am 05:53 Clear 64 17.8 28 -2.2 26 26 NW 15 24 29.94 1014 10 16.0934 N/A
6:53 am 06:53 Sunny 62 16.7 29 -1.7 29 29 WNW 6 9 29.98 1015 10 16.0934 N/A
7:53 am 07:53 Sunny 64 17.8 28 -2.2 26 26 NE 8 13 30.02 1017 10 16.0934 N/A
8:53 am 08:53 Sunny 66 18.9 29 -1.7 25 25 N 16 26 30.04 1017 10 16.0934 N/A
9:53 am 09:53 Sunny 67 19.4 22 -5.6 18 18 ENE 10 17 30.06 1018 10 16.0934 N/A
10:53 am 10:53 Sunny 69 20.6 22 -5.6 17 17 ENE 10 17 30.07 1018 10 16.0934 N/A
11:53 am 11:53 Sunny 70 21.1 20 -6.7 15 15 VRB 3 6 30.07 1018 10 16.0934 N/A
12:53 pm 12:53 Sunny 71 21.7 18 -7.8 13 13 E 10 17 30.06 1018 10 16.0934 N/A
1:53 pm 13:53 Sunny 71 21.7 17 -8.3 13 13 ESE 8 13 30.04 1017 10 16.0934 N/A
2:53 pm 14:53 Sunny 72 22.2 17 -8.3 12 12 E 9 15 30.02 1017 10 16.0934 N/A
3:53 pm 15:53 Sunny 72 22.2 15 -9.4 11 11 E 10 17 30.03 1017 10 16.0934 N/A
4:53 pm 16:53 Sunny 72 22.2 13 -10.6 10 10 ESE 9 15 30.02 1017 10 16.0934 N/A
5:53 pm 17:53 Sunny 70 21.1 11 -11.7 10 10 ESE 8 13 30.02 1017 10 16.0934 N/A
6:53 pm 18:53 Clear 67 19.4 11 -11.7 11 11 E 3 6 30.05 1018 10 16.0934 N/A
7:53 pm 19:53 Clear 66 18.9 14 -10 13 13 N N/A 30.06 1018 10 16.0934 N/A
8:53 pm 20:53 Clear 62 16.7 17 -8.3 17 17 W 6 9 30.07 1018 10 16.0934 N/A
9:53 pm 21:53 Clear 62 16.7 17 -8.3 17 17 N N/A 30.08 1019 10 16.0934 N/A
10:53 pm 22:53 Clear 59 15 17 -8.3 19 19 NNW 5 7 30.08 1019 10 16.0934 N/A
11:53 pm 23:53 Clear 58 14.4 19 -7.2 22 22 WNW 3 6 30.08 1019 10 16.0934 N/A

Powered by AerisWeather